Погода в Турткуле

Узбекистан     41°33′29″N   60°59′28″E
темп.,
°C
ветер,
м/с
пор.,
м/с
влажн.,
%
обл.,
%
осадки,
мм/ч
давл.,
гПа
погр.,
м
9 декабря, чт
чт923:00+5в612620 0.0 1030242
02:00+4в613665 0.0 1028238
05:00+4в513690 0.0 1027238
08:00+3в613715 0.0 1026219
11:00+9вюв813485 0.0 1026367
14:00+15вюв811295 0.0 1023621
17:00+14в713295 0.0 1021288
20:00+10в816390 0.0 1021300
10 декабря, пт
пт1023:00+8в613479 0.0 1021237
02:00+7вюв510480 0.0 1020150
05:00+6вюв59465 0.0 1020124
08:00+5юв334559 0.0 102025
11:00+10ююв343174 0.0 1020170
14:00+14зюз33220 0.0 1018410
17:00+13з34260 0.0 101951
20:00+9з51051100 0.0 1021205
11 декабря, сб
сб1123:00+8зсз510775 0.0 1022238
02:00+7з49875 0.0 1023186
05:00+5зсз46850 0.0 1024115
08:00+4з34864 0.0 102551
11:00+8з3568100 0.0 1026320
14:00+10зюз5661100 0.0 1025633
17:00+10з346295 0.0 1025134
20:00+7з337269 0.0 102625
12 декабря, вс
вс1223:00+7зюз2274100 0.0 102618
02:00+8юз2270100 0.0 102537
05:00+8ююз3369100 0.0 102582
08:00+8ююз3470100 0.0 1025109
11:00+9ююз4670100 0.0 1026267
14:00+10зюз4564100 0.0 1024425
17:00+9з3468100 0.0 1024148
20:00+8зсз3474100 0.0 1025120
13 декабря, пн
пн1323:00+7ссв3484100 0.0 1025194
02:00+6ссв3380100 0.0 1025241
05:00+5с4577100 0.0 1026298
08:00+4с4482100 0.0 1027364
11:00+4с4481100 0.0 1028530
14:00+5ссз446899 0.1 1027893
17:00+5ссз456598 0.3 1028821
20:00+3с356755 0.0 1029155